Location: Hains Lake
(37.8540°N, 99.8578°W)
Time: 04:06:59
(UTC+00:00)

Vanguard 2 Rocket - Pass Details

Date: 24 April 2021
Orbit: 553 x 3326 km, 32.9° (Epoch: 07 May)

Event Time Altitude Azimuth Distance (km) Brightness Sun altitude
Rises 21:14:13 0° 266° (W) 6,487 11.9 47.4°
Reaches altitude 10° 21:18:05 10° 265° (W) 5,726 11.9 46.7°
Maximum altitude 21:37:15 76° 184° (S) 3,396 10.7 43.2°
Drops below altitude 10° 21:56:06 10° 103° (ESE) 5,648 10.6 39.6°
Sets 21:59:53 0° 102° (ESE) 6,400 10.8 38.9°
